GW2328 Weather Reports


Display with metric or nautical units.
time (UTC)temp
F
wind
direction
speed
MPH
gust
MPH
rain 1hr
in
rain 24hr
in
rain mn
in
humidity
%
barometer
mb
20260510082153 55 152 0.0 0.0 0.00 0.00 0.00 92 1015.5
20260510081647 55 152 0.0 0.0 0.00 0.00 0.00 92 1015.5
20260510081143 55 152 0.0 0.0 0.00 0.00 0.00 92 1015.5
20260510080643 55 152 0.0 0.0 0.00 0.00 0.00 92 1015.4
20260510080140 55 152 0.0 0.0 0.00 0.00 0.00 92 1015.4
20260510075637 54 152 0.0 0.0 0.00 0.00 0.00 92 1015.4
20260510075134 54 152 0.0 0.0 0.00 0.00 0.00 92 1015.2
20260510074631 54 153 0.0 0.0 0.00 0.00 0.00 91 1015.4
20260510074127 54 153 0.0 0.0 0.00 0.00 0.00 91 1015.2
20260510073623 54 153 0.0 0.0 0.00 0.00 0.00 91 1015.0
20260510073120 54 153 0.0 0.0 0.00 0.00 0.00 91 1015.2
20260510072616 54 153 0.0 0.0 0.00 0.00 0.00 91 1015.0
20260510072113 54 153 0.0 0.0 0.00 0.00 0.00 91 1014.8
20260510071608 53 153 0.0 0.0 0.00 0.00 0.00 90 1014.9
20260510071107 53 153 0.0 0.0 0.00 0.00 0.00 90 1014.8
20260510070603 54 153 0.0 0.0 0.00 0.00 0.00 90 1014.8
20260510065557 54 153 0.0 0.0 0.00 0.00 0.00 90 1014.9
20260510065053 54 153 0.0 0.0 0.00 0.00 0.00 90 1015.1
20260510064549 54 153 0.0 0.0 0.00 0.00 0.00 89 1015.0
20260510064046 54 153 0.0 0.0 0.00 0.00 0.00 89 1014.9
20260510063543 54 153 0.0 0.0 0.00 0.00 0.00 89 1015.0
20260510063040 54 153 0.0 0.0 0.00 0.00 0.00 89 1015.0
20260510062536 54 153 0.0 0.0 0.00 0.00 0.00 89 1015.1
20260510062031 55 153 0.0 0.0 0.00 0.00 0.00 88 1015.1
20260510061528 55 153 0.0 0.0 0.00 0.00 0.00 88 1015.2
20260510061025 55 153 0.0 0.0 0.00 0.00 0.00 88 1015.2
20260510060521 55 153 0.0 0.0 0.00 0.00 0.00 88 1015.2
20260510060017 55 152 0.0 0.0 0.00 0.00 0.00 87 1015.1
20260510055513 55 152 0.0 0.0 0.00 0.00 0.00 87 1015.1
20260510055012 55 152 0.0 0.0 0.00 0.00 0.00 87 1015.3
20260510054507 55 152 0.0 0.0 0.00 0.00 0.00 87 1015.4
20260510054003 55 152 0.0 0.0 0.00 0.00 0.00 86 1015.5
20260510053457 55 152 0.0 0.0 0.00 0.00 0.00 86 1015.2
20260510052954 55 152 0.0 0.0 0.00 0.00 0.00 86 1015.3
20260510052450 55 152 0.0 0.0 0.00 0.00 0.00 86 1015.5
20260510051947 55 152 0.0 0.0 0.00 0.00 0.00 85 1015.5
20260510051442 56 152 0.0 0.0 0.00 0.00 0.00 85 1015.5
20260510050939 56 152 0.0 0.0 0.00 0.00 0.00 85 1015.5
20260510050436 56 152 0.0 0.0 0.00 0.00 0.00 84 1015.4
20260510045934 56 152 0.0 0.0 0.00 0.00 0.00 84 1015.6
20260510045431 56 152 0.0 0.0 0.00 0.00 0.00 83 1015.6
20260510044927 57 152 0.0 0.0 0.00 0.00 0.00 83 1015.6
20260510044424 57 152 0.0 0.0 0.00 0.00 0.00 83 1015.6
20260510043921 57 152 0.0 0.0 0.00 0.00 0.00 82 1015.6
20260510043417 57 152 0.0 0.0 0.00 0.00 0.00 82 1015.5
20260510042915 57 152 0.0 0.0 0.00 0.00 0.00 82 1015.4
20260510042411 57 152 0.0 0.0 0.00 0.00 0.00 81 1015.3
20260510041906 58 152 0.0 0.0 0.00 0.00 0.00 81 1015.5
20260510041404 58 152 0.0 0.0 0.00 0.00 0.00 80 1015.2
20260510040902 58 153 0.0 0.0 0.00 0.00 0.00 80 1015.6
20260510040358 58 142 0.0 0.0 0.00 0.00 0.00 79 1015.5
20260510035854 58 142 0.0 0.0 0.00 0.00 0.00 79 1015.6
20260510035349 59 146 0.0 0.0 0.00 0.00 0.00 78 1015.4
20260510034845 59 149 0.0 0.0 0.00 0.00 0.00 77 1015.5
20260510034343 59 149 0.0 0.0 0.00 0.00 0.00 77 1015.4
20260510033839 59 149 0.0 0.0 0.00 0.00 0.00 76 1015.5
20260510033336 60 149 0.0 0.0 0.00 0.00 0.00 76 1015.5
20260510032833 60 149 0.0 0.0 0.00 0.00 0.00 75 1015.1
20260510032330 60 149 0.0 0.0 0.00 0.00 0.00 74 1015.3
20260510031825 60 149 0.0 0.0 0.00 0.00 0.00 74 1015.4
20260510031321 60 149 0.0 0.0 0.00 0.00 0.00 73 1015.4
20260510030815 61 149 0.0 0.0 0.00 0.00 0.00 72 1015.2
20260510030312 61 149 0.0 0.0 0.00 0.00 0.00 71 1015.3
20260510025809 62 149 0.0 0.0 0.00 0.00 0.00 71 1015.3
20260510025307 62 149 0.0 0.0 0.00 0.00 0.00 70 1015.3
20260510024803 62 149 0.0 0.0 0.00 0.00 0.00 69 1015.2
20260510024300 62 149 0.0 0.0 0.00 0.00 0.00 68 1015.1
20260510023756 62 149 0.0 0.0 0.00 0.00 0.00 67 1014.8
20260510023253 63 149 0.0 0.0 0.00 0.00 0.00 66 1014.9
20260510022750 63 149 0.0 0.0 0.00 0.00 0.00 65 1015.1
20260510022250 64 149 0.0 0.0 0.00 0.00 0.00 64 1014.7
20260510021749 65 149 0.0 0.0 0.00 0.00 0.00 63 1014.8
20260510021247 65 149 0.0 0.0 0.00 0.00 0.00 61 1014.7
20260510020743 66 149 0.0 0.0 0.00 0.00 0.00 60 1014.8
20260510020242 66 149 0.0 0.0 0.00 0.00 0.00 59 1014.6
20260510015739 66 149 0.0 0.0 0.00 0.00 0.00 59 1014.3
20260510015235 66 149 0.0 0.0 0.00 0.00 0.00 58 1014.3
20260510014730 67 149 0.0 0.0 0.00 0.00 0.00 58 1014.3
20260510014228 67 149 0.0 0.0 0.00 0.00 0.00 57 1014.1
20260510013724 68 149 0.0 0.0 0.00 0.00 0.00 57 1014.1
20260510013219 68 149 0.0 0.0 0.00 0.00 0.00 56 1014.0
20260510012719 68 149 0.0 0.0 0.00 0.00 0.00 56 1013.8
20260510012214 68 148 0.0 0.0 0.00 0.00 0.00 55 1014.0
20260510011709 68 148 0.0 0.0 0.00 0.00 0.00 55 1013.9
20260510011205 69 149 0.0 0.0 0.00 0.00 0.00 54 1013.8
20260510010702 69 148 0.0 0.0 0.00 0.00 0.00 54 1013.9
20260510010159 69 151 0.0 0.0 0.00 0.00 0.00 53 1013.6
20260510005655 70 152 0.0 0.0 0.00 0.00 0.00 53 1013.7
20260510005151 70 147 0.0 0.0 0.00 0.00 0.00 52 1013.6
20260510004650 71 149 0.0 0.0 0.00 0.00 0.00 52 1013.5
20260510004148 71 148 0.0 0.0 0.00 0.00 0.00 52 1013.4
20260510003645 71 159 2.0 3.0 0.00 0.00 0.00 51 1013.3
20260510003140 72 169 1.0 1.0 0.00 0.00 0.00 51 1013.0
20260510002640 72 134 0.0 0.0 0.00 0.00 0.00 50 1013.0
20260510002138 73 143 0.0 1.0 0.00 0.00 0.00 49 1012.9
20260510001634 73 151 0.0 2.0 0.00 0.00 0.00 49 1012.8
20260510001133 73 159 2.0 2.0 0.00 0.00 0.00 49 1012.8
20260510000633 74 152 0.0 1.0 0.00 0.00 0.00 48 1012.9
20260510000131 74 155 1.0 2.0 0.00 0.00 0.00 48 1012.7
20260509235627 74 166 1.0 2.0 0.00 0.00 0.00 48 1012.5
20260509235124 74 144 0.0 3.0 0.00 0.00 0.00 47 1012.5
20260509234620 74 213 3.0 5.0 0.00 0.00 0.00 47 1012.3
20260509234118 75 243 1.0 2.0 0.00 0.00 0.00 47 1012.3
20260509233615 75 159 1.0 1.0 0.00 0.00 0.00 46 1012.6
20260509233112 75 149 1.0 3.0 0.00 0.00 0.00 46 1012.3
20260509232608 75 175 3.0 5.0 0.00 0.00 0.00 45 1012.4
20260509232106 76 192 1.0 2.0 0.00 0.00 0.00 45 1012.3
20260509231602 76 155 1.0 3.0 0.00 0.00 0.00 44 1012.3
20260509231100 76 196 2.0 3.0 0.00 0.00 0.00 43 1012.4
20260509230556 76 153 0.0 2.0 0.00 0.00 0.00 43 1012.1
20260509230054 76 122 3.0 3.0 0.00 0.00 0.00 43 1012.2
20260509225549 76 150 1.0 3.0 0.00 0.00 0.00 42 1012.1
20260509225044 76 183 3.0 6.0 0.00 0.00 0.00 42 1012.3
20260509224540 77 145 2.0 3.0 0.00 0.00 0.00 43 1012.2
20260509224037 77 154 1.0 3.0 0.00 0.00 0.00 42 1012.2
20260509223534 77 143 1.0 1.0 0.00 0.00 0.00 42 1011.8
20260509223032 77 152 2.0 3.0 0.00 0.00 0.00 43 1012.1
20260509222528 77 203 2.0 5.0 0.00 0.00 0.00 43 1012.2
20260509222024 77 145 1.0 5.0 0.00 0.00 0.00 42 1012.1
20260509221520 77 148 0.0 0.0 0.00 0.00 0.00 43 1012.1
20260509221016 77 163 2.0 5.0 0.00 0.00 0.00 43 1012.1
20260509220512 77 154 2.0 3.0 0.00 0.00 0.00 42 1012.2
20260509220009 78 156 3.0 6.0 0.00 0.00 0.00 42 1012.2
20260509215504 78 163 2.0 2.0 0.00 0.00 0.00 42 1012.3
20260509215001 78 178 1.0 3.0 0.00 0.00 0.00 41 1012.2
20260509214458 79 194 7.0 10.0 0.00 0.00 0.00 41 1012.1
20260509213955 79 156 0.0 2.0 0.00 0.00 0.00 42 1012.3
20260509213451 79 142 0.0 2.0 0.00 0.00 0.00 42 1012.3
20260509212948 80 245 3.0 5.0 0.00 0.00 0.00 41 1012.4
20260509212446 80 157 1.0 1.0 0.00 0.00 0.00 41 1012.6
20260509211942 79 177 3.0 3.0 0.00 0.00 0.00 42 1012.5
20260509211437 79 295 3.0 3.0 0.00 0.00 0.00 42 1012.3
20260509210934 79 143 2.0 8.0 0.00 0.00 0.00 41 1012.6
20260509210431 79 206 2.0 6.0 0.00 0.00 0.00 41 1012.3
20260509205927 79 165 1.0 5.0 0.00 0.00 0.00 42 1012.5
20260509205421 80 285 2.0 3.0 0.00 0.00 0.00 42 1012.4
20260509204917 80 152 0.0 3.0 0.00 0.00 0.00 42 1012.4
20260509204414 79 167 1.0 2.0 0.00 0.00 0.00 42 1012.4
20260509203911 80 185 0.0 6.0 0.00 0.00 0.00 42 1012.4
20260509203407 80 168 5.0 9.0 0.00 0.00 0.00 42 1012.6
20260509202904 80 168 0.0 2.0 0.00 0.00 0.00 44 1012.5
20260509202400 79 114 2.0 5.0 0.00 0.00 0.00 44 1012.6
20260509201855 79 185 5.0 7.0 0.00 0.00 0.00 45 1012.5
20260509201350 80 242 3.0 3.0 0.00 0.00 0.00 44 1012.5
20260509200848 80 147 1.0 3.0 0.00 0.00 0.00 45 1012.5
20260509200342 80 135 1.0 1.0 0.00 0.00 0.00 45 1012.7
20260509195839 79 160 0.0 3.0 0.00 0.00 0.00 44 1012.9
20260509195334 80 183 2.0 2.0 0.00 0.00 0.00 45 1012.6
20260509194833 80 231 2.0 3.0 0.00 0.00 0.00 45 1012.9
20260509194329 80 150 1.0 3.0 0.00 0.00 0.00 46 1012.9
20260509193826 79 150 2.0 3.0 0.00 0.00 0.00 47 1013.1
20260509193321 78 148 1.0 2.0 0.00 0.00 0.00 47 1013.2
20260509192817 79 239 1.0 2.0 0.00 0.00 0.00 47 1013.1
20260509192314 78 228 1.0 5.0 0.00 0.00 0.00 47 1012.8
20260509191809 78 138 0.0 3.0 0.00 0.00 0.00 48 1013.0
20260509191305 77 150 1.0 3.0 0.00 0.00 0.00 49 1013.1
20260509190801 78 147 2.0 3.0 0.00 0.00 0.00 49 1013.2
20260509190258 77 169 1.0 3.0 0.00 0.00 0.00 49 1013.1
20260509185755 77 138 3.0 3.0 0.00 0.00 0.00 51 1013.2
20260509185251 77 140 0.0 2.0 0.00 0.00 0.00 52 1013.5
20260509184749 77 144 1.0 3.0 0.00 0.00 0.00 52 1013.3
20260509184247 77 220 1.0 2.0 0.00 0.00 0.00 52 1013.5
20260509183743 76 153 1.0 2.0 0.00 0.00 0.00 53 1013.5
20260509183238 77 112 0.0 3.0 0.00 0.00 0.00 52 1013.4
20260509182734 76 167 2.0 3.0 0.00 0.00 0.00 53 1013.6
20260509182232 75 141 0.0 1.0 0.00 0.00 0.00 53 1013.5
20260509181729 75 200 3.0 5.0 0.00 0.00 0.00 53 1013.7
20260509181226 75 257 1.0 3.0 0.00 0.00 0.00 55 1013.4
20260509180723 75 135 0.0 2.0 0.00 0.00 0.00 55 1013.5
20260509180220 75 214 2.0 3.0 0.00 0.00 0.00 55 1013.6
20260509175716 75 173 2.0 2.0 0.00 0.00 0.00 55 1013.5
20260509175212 75 161 1.0 2.0 0.00 0.00 0.00 57 1013.8
20260509174708 74 139 1.0 1.0 0.00 0.00 0.00 57 1013.6
20260509174204 74 145 2.0 3.0 0.00 0.00 0.00 57 1013.5
20260509173700 75 187 3.0 6.0 0.00 0.00 0.00 56 1013.6
20260509173155 75 138 2.0 3.0 0.00 0.00 0.00 56 1013.7
20260509172652 74 144 1.0 1.0 0.00 0.00 0.00 57 1013.6
20260509172148 73 136 0.0 1.0 0.00 0.00 0.00 58 1013.6
20260509171644 73 121 0.0 2.0 0.00 0.00 0.00 58 1013.5
20260509171140 73 195 3.0 3.0 0.00 0.00 0.00 57 1013.8
20260509170638 74 137 1.0 3.0 0.00 0.00 0.00 58 1013.7
20260509170133 73 170 2.0 5.0 0.00 0.00 0.00 58 1013.7
20260509165631 73 166 4.0 6.0 0.00 0.00 0.00 59 1013.5
20260509165127 71 137 1.0 1.0 0.00 0.00 0.00 60 1013.7
20260509164624 72 177 3.0 5.0 0.00 0.00 0.00 60 1013.9
20260509164120 71 148 1.0 2.0 0.00 0.00 0.00 61 1013.7
20260509163617 71 142 0.0 0.0 0.00 0.00 0.00 60 1013.6
20260509163113 72 139 0.0 3.0 0.00 0.00 0.00 60 1013.9
20260509162610 71 140 0.0 1.0 0.00 0.00 0.00 60 1013.6
20260509162105 72 147 0.0 0.0 0.00 0.00 0.00 59 1013.6
20260509161557 74 144 2.0 3.0 0.00 0.00 0.00 59 1013.5
20260509161057 72 146 1.0 1.0 0.00 0.00 0.00 61 1013.6
20260509160553 72 160 0.0 1.0 0.00 0.00 0.00 61 1013.6
20260509160048 73 190 3.0 3.0 0.00 0.00 0.00 62 1013.5
20260509155545 72 132 0.0 1.0 0.00 0.00 0.00 63 1013.6
20260509155041 71 151 1.0 2.0 0.00 0.00 0.00 64 1013.4
20260509154537 71 138 0.0 1.0 0.00 0.00 0.00 64 1013.7
20260509154035 71 159 2.0 2.0 0.00 0.00 0.00 65 1013.6
20260509153532 71 211 3.0 3.0 0.00 0.00 0.00 65 1013.5
20260509153028 71 149 4.0 5.0 0.00 0.00 0.00 66 1013.5
20260509152524 70 140 0.0 1.0 0.00 0.00 0.00 68 1013.5
20260509152022 69 147 0.0 1.0 0.00 0.00 0.00 69 1013.4
20260509151518 68 128 1.0 2.0 0.00 0.00 0.00 70 1013.6
20260509151016 68 158 1.0 3.0 0.00 0.00 0.00 70 1013.7
20260509150513 68 150 1.0 3.0 0.00 0.00 0.00 72 1013.6
20260509150012 68 182 2.0 2.0 0.00 0.00 0.00 74 1013.6
20260509145507 66 141 0.0 0.0 0.00 0.00 0.00 76 1013.4
20260509145002 65 158 0.0 1.0 0.00 0.00 0.00 77 1013.4
20260509144459 65 145 0.0 3.0 0.00 0.00 0.00 78 1013.4
20260509143956 64 159 0.0 2.0 0.00 0.00 0.00 79 1013.6
20260509143453 64 118 1.0 2.0 0.00 0.00 0.00 80 1013.5
20260509142950 63 163 1.0 2.0 0.00 0.00 0.00 80 1013.5
20260509142446 63 165 1.0 3.0 0.00 0.00 0.00 81 1013.5
20260509141942 63 145 1.0 3.0 0.00 0.00 0.00 82 1013.5
20260509141438 63 144 0.0 1.0 0.00 0.00 0.00 83 1013.5
20260509140935 62 134 0.0 1.0 0.00 0.00 0.00 85 1013.5
20260509140432 62 127 0.0 1.0 0.00 0.00 0.00 85 1013.5
20260509135930 62 144 1.0 1.0 0.00 0.00 0.00 86 1013.3
20260509135427 62 142 0.0 0.0 0.00 0.00 0.00 87 1013.6
20260509134925 62 117 1.0 1.0 0.00 0.00 0.00 88 1013.6
20260509134422 61 150 0.0 1.0 0.00 0.00 0.00 89 1013.2
20260509133919 61 142 0.0 0.0 0.00 0.00 0.00 90 1013.4
20260509133415 61 144 0.0 0.0 0.00 0.00 0.00 90 1013.3
20260509132914 60 141 0.0 1.0 0.00 0.00 0.00 91 1013.3
20260509132412 60 155 1.0 1.0 0.00 0.00 0.00 91 1013.3
20260509131908 60 151 0.0 1.0 0.00 0.00 0.00 92 1013.3
20260509131406 60 164 0.0 1.0 0.00 0.00 0.00 92 1013.3
20260509130902 59 142 0.0 0.0 0.00 0.00 0.00 93 1013.4
20260509130357 58 157 1.0 1.0 0.00 0.00 0.00 93 1013.2
20260509125855 58 140 0.0 0.0 0.00 0.00 0.00 93 1013.3
20260509125351 58 154 0.0 1.0 0.00 0.00 0.00 93 1013.2
20260509124847 57 139 0.0 1.0 0.00 0.00 0.00 94 1013.0
20260509124344 57 152 0.0 1.0 0.00 0.00 0.00 94 1013.2
20260509123842 57 155 0.0 0.0 0.00 0.00 0.00 94 1013.3
20260509123339 57 146 0.0 0.0 0.00 0.00 0.00 94 1013.3
20260509122835 57 147 0.0 0.0 0.00 0.00 0.00 94 1013.3
20260509122332 57 147 0.0 0.0 0.00 0.00 0.00 94 1013.3
20260509121829 57 157 0.0 0.0 0.00 0.00 0.00 94 1013.4
20260509121326 57 155 0.0 0.0 0.00 0.00 0.00 94 1013.3
20260509120824 56 151 0.0 0.0 0.00 0.00 0.00 94 1013.4
20260509120322 56 151 0.0 0.0 0.00 0.00 0.00 94 1013.3
20260509115820 56 151 0.0 0.0 0.00 0.00 0.00 94 1013.1
20260509115316 56 151 0.0 0.0 0.00 0.00 0.00 94 1012.8
20260509114814 56 143 0.0 0.0 0.00 0.00 0.00 94 1012.7
20260509114313 55 143 0.0 0.0 0.00 0.00 0.00 94 1012.7
20260509113812 55 142 0.0 0.0 0.00 0.00 0.00 94 1012.7
20260509113308 55 142 0.0 0.0 0.00 0.00 0.00 94 1012.4
20260509112805 55 142 0.0 0.0 0.00 0.00 0.00 93 1012.6
20260509112306 55 142 0.0 0.0 0.00 0.00 0.00 93 1012.4
20260509111759 55 142 0.0 0.0 0.00 0.00 0.00 93 1012.5
20260509111256 55 142 0.0 0.0 0.00 0.00 0.00 93 1012.7
20260509110753 55 142 0.0 0.0 0.00 0.00 0.00 93 1012.5
20260509110250 55 142 0.0 0.0 0.00 0.00 0.00 93 1012.6
20260509105748 55 142 0.0 0.0 0.00 0.00 0.00 93 1012.5
20260509105245 55 142 0.0 0.0 0.00 0.00 0.00 93 1012.5
20260509104742 55 142 0.0 0.0 0.00 0.00 0.00 93 1012.7
20260509104239 55 142 0.0 0.0 0.00 0.00 0.00 92 1012.7
20260509103737 55 142 0.0 0.0 0.00 0.00 0.00 92 1012.5
20260509103234 55 142 0.0 0.0 0.00 0.00 0.00 92 1012.6
20260509102732 55 142 0.0 0.0 0.00 0.00 0.00 92 1012.7
20260509102229 55 142 0.0 1.0 0.00 0.00 0.00 92 1012.7
20260509101725 55 142 0.0 0.0 0.00 0.00 0.00 92 1012.6
20260509101222 55 142 0.0 0.0 0.00 0.00 0.00 92 1012.6
20260509100719 55 142 0.0 0.0 0.00 0.00 0.00 92 1013.0
20260509100216 55 142 0.0 0.0 0.00 0.00 0.00 91 1012.7
20260509095713 55 142 0.0 0.0 0.00 0.00 0.00 91 1012.9
20260509095210 56 142 0.0 0.0 0.00 0.00 0.00 91 1012.9
20260509094707 56 142 0.0 0.0 0.00 0.00 0.00 91 1012.8
20260509094204 56 142 0.0 0.0 0.00 0.00 0.00 91 1012.6
20260509093702 56 142 0.0 0.0 0.00 0.00 0.00 91 1012.7
20260509093159 56 142 0.0 0.0 0.00 0.00 0.00 90 1012.8
20260509092657 56 142 0.0 0.0 0.00 0.00 0.00 90 1012.9
20260509092155 56 142 0.0 0.0 0.00 0.00 0.00 90 1012.8
20260509091653 56 142 0.0 0.0 0.00 0.00 0.00 90 1012.9
20260509091148 56 142 0.0 0.0 0.00 0.00 0.00 90 1013.2
20260509090646 56 142 0.0 0.0 0.00 0.00 0.00 90 1013.1
20260509090138 56 142 0.0 0.0 0.00 0.00 0.00 90 1013.1
20260509085635 56 142 0.0 0.0 0.00 0.00 0.00 89 1013.1
20260509085131 56 142 0.0 0.0 0.00 0.00 0.00 89 1012.8
20260509084629 56 142 0.0 0.0 0.00 0.00 0.00 89 1013.0
20260509084126 56 142 0.0 0.0 0.00 0.00 0.00 89 1012.9
20260509083623 56 142 0.0 0.0 0.00 0.00 0.00 88 1013.0
20260509083119 56 142 0.0 0.0 0.00 0.00 0.00 88 1013.0
20260509082617 57 142 0.0 0.0 0.00 0.00 0.00 88 1013.3